Weather Roundup
Issued by NWS Chicago, IL

Home | Current Version | Previous Version | Graphics & Text | Print | Product List | Glossary On
Versions: 1 2 3 4 5 6 7 8 9 10 11 12 13 14 15 16 17 18 19 20 21 22 23 24 25 26 27 28 29 30 31 32 33 34 35 36 37 38 39 40 41 42 43 44 45 46 47 48 49 50
000
NZUS59 KLOT 111910
HRRLOT

CHICAGO AREA WEATHER ROUNDUP
NATIONAL WEATHER SERVICE CHICAGO/ROMEOVILLE IL
200 PM CDT FRI JUL 11 2014

NOTE: "FAIR" INDICATES FEW OR NO CLOUDS BELOW 12,000 FEET WITH NO
SIGNIFICANT WEATHER AND/OR OBSTRUCTIONS TO VISIBILITY.

* THESE STATIONS ARE NOT UNDER NWS QUALITY CONTROL. THEY ALSO MAY NOT
  REPORT WEATHER SUCH AS PRECIPITATION OR FOG.

ILZ005-006-012>014-019>023-112000-
NORTHEAST ILLINOIS

CITY           SKY/WX    TMP DP  RH WIND       PRES   REMARKS
OHARE          PTSUNNY   79  50  36 S6        30.16F
MIDWAY         PTSUNNY   82  49  31 SW5       30.17F HX  81
AURORA         PTSUNNY   78  55  44 S6        30.18F
LANSING*       SUNNY     79  48  34 SW5       30.17F
JOLIET*        SUNNY     78  50  37 S6        30.18F
WAUKEGAN       MOSUNNY   75  53  46 E10       30.17F
DUPAGE AIRPORT MOSUNNY   80  53  39 SW9       30.17F HX  80
WHEELING       MOSUNNY   82  50  32 CALM      30.18F HX  81
KANKAKEE*      SUNNY     80  61  51 S6        30.18F HX  81
MORRIS*        MOSUNNY   80  58  47 S3        30.16F HX  81
LEWIS AIRPORT* MOSUNNY   78  52  40 S7        30.17F
NORTHERLY IS     N/A     74  61  63 E10         N/A
$$

WIZ051-052-058>065-066-070>072-112000-
SOUTHEAST WISCONSIN

CITY           SKY/WX    TMP DP  RH WIND       PRES   REMARKS
MILWAUKEE      CLOUDY    77  56  48 SE16      30.16F
KENOSHA*       PTSUNNY   78  58  49 S10       30.17F
RACINE*        MOSUNNY   77  55  46 SE14      30.18F
BURLINGTON     PTSUNNY   74  58  57 S7        30.17F
WAUKESHA       PTSUNNY   73  54  49 S12       30.18F
WEST BEND      CLOUDY    75  52  43 S9G16     30.15F
$$

INZ001>003-010>013-019-020-112000-
NORTHWEST INDIANA

CITY           SKY/WX    TMP DP  RH WIND       PRES   REMARKS
GARY*          MOSUNNY   81  50  34 SE8       30.18F HX  80
MICHIGAN CITY* NOT AVBL
RENSSELAER*    NOT AVBL
VALPARAISO     SUNNY     78  53  41 SW6       30.19F
$$

LMZ740>746-112000-
SOUTHERN LAKE MICHIGAN

STATION/POSITION TIME  SKY/WX   TEMP WIND        PRES    VSBY
                                AIR  DIR/SP/G
                 (UTC)          (F)  (DEG/KT/KT) (MB)    (MI)
HARRISON CRIB    1900            72  100/ 12/ 13   N/A
BURNHAM HARBOR   1900            73  100/  9/ 10   N/A
CALUMET HARBOR   1900            72   40/  7/  9 1022.4F
BURNS HARBOR     1900            80  170/  4/ 12 1022.4S
MICHIGAN CITY    1900            76  330/  6/  7   N/A
$$

ABBREVIATIONS USED IN REMARKS
   TC - TEMPERATURE IN CELSIUS
  WCI - WIND CHILL INDEX
   HX - HEAT INDEX
  VSB - VISIBILITY
$$



USA.gov is the U.S. government's official web portal to all federal, state and local government web resources and services.